Location: *
(51.2167°N, 10.0667°E)
Time: 18:45:27
(UTC+00:00)

NOSS 3-1 (C) - Pass Details

Date: 12 December 2019
Orbit: 763 x 1445 km, 63.4° (Epoch: 28 January)

Event Time Altitude Azimuth Distance (km) Brightness Sun altitude
Rises 18:08:22 0° 314° (NW) 3,860 7.2 -26.3°
Reaches altitude 10° 18:10:51 10° 315° (NW) 2,994 6.5 -26.7°
Maximum altitude 18:18:10 88° 44° (NE) 1,262 3.9 -27.8°
Enters shadow 18:20:53 47° 134° (SE) 1,660 4.3 -28.2°
